Weather Roundup
Issued by NWS

Home | Current Version | Previous Version | Graphics & Text | Print | Product List | Glossary Off
Versions: 1 2 3 4 5 6 7 8 9 10 11 12 13 14 15 16 17 18 19 20 21 22 23 24 25 26 27 28 29 30 31 32 33 34 35 36 37 38 39 40 41 42 43 44 45 46 47 48 49 50

528
NZUS93 KARX 261159
HRRWXR

CURRENT HOURLY OBSERVATIONS ACROSS
MUCH OF THE UPPER MISSISSIPPI VALLEY
NATIONAL WEATHER SERVICE LA CROSSE WI
700 AM CDT TUE JUL 26 2016


...SOUTHEAST MINNESOTA...


CITY           SKY/WX    TMP DP  RH WIND       PRES   REMARKS
ROCHESTER      SUNNY     66  64  93 SW6       30.09S
ROCHESTER/MAYO FAIR      67  64  90 CALM      30.09S
WINONA         MOSUNNY   66  64  94 CALM      30.07S
AUSTIN         CLEAR     64  63  94 S5        30.09R
ALBERT LEA     CLEAR     68  64  88 SW3       30.09S
DODGE CENTER   MOSUNNY   70  64  83 SW5       30.09R
PRESTON        SUNNY     63  61  92 SW6       30.10R
OWATONNA       CLEAR     68  63  83 S6        30.08R
FARIBAULT      CLEAR     66  64  94 CALM      30.07S
$$

...ELSEWHERE IN MINNESOTA...


CITY           SKY/WX    TMP DP  RH WIND       PRES   REMARKS
MINNEAPOLIS    MOSUNNY   72  64  76 SW5       30.05R
INTNL FALLS    SUNNY     64  62  93 CALM      29.97R
DULUTH         CLOUDY    70  64  81 W13       30.00S
RED WING       SUNNY     66  64  94 CALM      30.05S
REDWOOD FALLS  CLEAR     67  62  84 S8        30.03S
MANKATO        CLEAR     66  61  82 S6        30.06S
WORTHINGTON    CLEAR     70  64  81 MISG      30.09R
FAIRMONT       CLEAR     64  61  88 S3        30.07R
$$

...SOUTHWEST WISCONSIN...


CITY           SKY/WX    TMP DP  RH WIND       PRES   REMARKS
LA CROSSE      CLOUDY    67  66  97 SE6       30.06F FOG
PRAIRIE DU CHI RAIN      65  64  95 E3        30.08S VSB<1/4
BOSCOBEL       FOG       65  64  97 CALM      30.09S VSB<1/4
LONE ROCK      NOT AVBL
PLATTEVILLE    SUNNY     64  64 100 CALM      30.09S
FORT MC COY    PTSUNNY   57  57  99 CALM      30.09R
CAMP DOUGLAS   SUNNY     59  59 100 E1        30.07S
MAUSTON-NEW LI SUNNY     59  59 100 CALM      30.07S
VIROQUA        FAIR      63  63 100 CALM      30.09S
WIS DELLS      NOT AVBL
$$

...ELSEWHERE IN WISCONSIN...


CITY           SKY/WX    TMP DP  RH WIND       PRES   REMARKS
MILWAUKEE      MOSUNNY   74  64  71 NW3       30.07R
MADISON        MOSUNNY   68  65  90 CALM      30.08S
GREEN BAY      SUNNY     65  65 100 CALM      30.05R
EAU CLAIRE     NOT AVBL
BLACK RVR FLS  FAIR      59  59 100 CALM      30.07R
MEDFORD        SUNNY     61  61 100 CALM      30.09R
WAUSAU         SUNNY     66  63  90 VRB3      30.07R
WIS RAPIDS     SUNNY     65  62  90 CALM      30.09R
MARSHFIELD     SUNNY     67  63  87 CALM      30.08R
RICE LAKE      MOSUNNY   62  61  96 CALM      30.07S
$$

...NORTHEAST IOWA...


CITY           SKY/WX    TMP DP  RH WIND       PRES   REMARKS
WATERLOO       PTSUNNY   65  63  93 CALM      30.09R FOG
DUBUQUE        SUNNY     68  64  87 CALM      30.10R
DECORAH        SUNNY     64  64 100 CALM      30.09R
MASON CITY     CLEAR     64  63  96 S5        30.11S
CHARLES CITY   SUNNY     64  64 100 CALM      30.10S FOG
OELWEIN        NOT AVBL
$$

...ELSEWHERE IN IOWA...


CITY           SKY/WX    TMP DP  RH WIND       PRES   REMARKS
DES MOINES     PTCLDY    69  66  90 CALM      30.08S
IOWA CITY      SUNNY     67  65  93 CALM      30.10R
FORT DODGE     CLEAR     64  63  94 CALM      30.11R
MARSHALLTOWN   CLEAR     63  63 100 NW5       30.09R
CEDAR RAPIDS   SUNNY     64  64 100 NW3       30.09R
$$

...NORTHERN ILLINOIS...


CITY           SKY/WX    TMP DP  RH WIND       PRES   REMARKS
CHICAGO-OHARE  MOSUNNY   74  66  76 NW5       30.07R
CHICAGO-MIDWAY MOSUNNY   76  67  73 CALM      30.06R
MOLINE         MOSUNNY   68  65  90 CALM      30.07R
ROCKFORD       SUNNY     69  66  90 CALM      30.09R
PEORIA         SUNNY     71  68  90 CALM      30.06R
$$

NOTE: "FAIR" INDICATES FEW OR NO CLOUDS BELOW 12,000 FEET WITH NO
SIGNIFICANT WEATHER AND/OR OBSTRUCTIONS TO VISIBILITY. WIND
SPEEDS ARE IN MILES-PER-HOUR.




USA.gov is the U.S. government's official web portal to all federal, state and local government web resources and services.